DW2281 Weather Reports


time (UTC)temp
C
wind
direction
speed
KPH
gust
KPH
rain 1hr
cm
rain 24hr
cm
rain mn
cm
humidity
%
barometer
mb
20200606170107 23 281 1.6 3.2 0.00 0.05 0.03 55 1008.2
20200606165106 23 235 1.6 3.2 0.00 0.05 0.03 54 1008.2
20200606164607 24 191 1.6 3.2 0.00 0.05 0.03 55 1008.1
20200606163605 24 311 1.6 3.2 0.00 0.05 0.03 54 1008.1
20200606163106 24 286 1.6 8.0 0.00 0.05 0.03 54 1008.1
20200606162606 24 276 3.2 8.0 0.00 0.05 0.03 53 1008.1
20200606162105 23 213 3.2 8.0 0.00 0.05 0.03 53 1008.0
20200606161606 23 327 3.2 8.0 0.00 0.05 0.03 53 1008.0
20200606161105 23 203 1.6 8.0 0.00 0.05 0.03 53 1008.0
20200606160107 23 284 1.6 3.2 0.00 0.05 0.03 54 1008.1
20200606155606 23 200 1.6 3.2 0.00 0.05 0.03 54 1008.1
20200606154606 23 238 4.8 11.3 0.00 0.05 0.03 53 1008.1
20200606154105 24 236 3.2 8.0 0.00 0.05 0.03 53 1008.0
20200606153106 24 16 3.2 8.0 0.00 0.05 0.03 53 1008.0
20200606152605 24 5 1.6 8.0 0.00 0.05 0.03 53 1008.0
20200606152105 24 278 1.6 4.8 0.00 0.05 0.03 52 1008.1
20200606151605 24 355 3.2 8.0 0.00 0.05 0.03 53 1008.0
20200606151106 24 303 4.8 8.0 0.00 0.05 0.03 52 1008.2
20200606150605 24 294 3.2 8.0 0.00 0.05 0.03 52 1008.1
20200606150105 23 299 4.8 9.7 0.00 0.05 0.03 52 1008.0
20200606145106 23 247 4.8 9.7 0.00 0.05 0.03 53 1008.2
20200606144605 23 192 4.8 16.1 0.00 0.05 0.03 53 1008.2
20200606144107 23 235 8.0 16.1 0.00 0.05 0.03 53 1008.3
20200606143605 23 217 8.0 19.3 0.00 0.05 0.03 52 1008.2
20200606143105 23 199 8.0 19.3 0.00 0.05 0.03 52 1008.3
20200606142606 23 231 4.8 19.3 0.00 0.05 0.03 52 1008.3
20200606141606 23 272 4.8 11.3 0.00 0.05 0.03 52 1008.3
20200606140606 23 200 11.3 24.1 0.00 0.05 0.03 53 1008.4
20200606140105 22 210 16.1 24.1 0.00 0.05 0.03 53 1008.4
20200606135606 22 223 14.5 24.1 0.00 0.05 0.03 52 1008.5
20200606134107 23 214 12.9 19.3 0.00 0.05 0.03 53 1008.4
20200606133606 23 189 14.5 27.4 0.00 0.05 0.03 51 1008.4
20200606133105 23 238 11.3 27.4 0.00 0.05 0.03 53 1008.3
20200606132606 23 272 8.0 27.4 0.00 0.05 0.03 53 1008.4
20200606132105 23 266 8.0 11.3 0.00 0.05 0.03 54 1008.3
20200606131606 23 185 9.7 20.9 0.00 0.05 0.03 53 1008.4
20200606131106 23 228 8.0 20.9 0.00 0.05 0.03 53 1008.4
20200606130606 23 216 4.8 14.5 0.00 0.05 0.03 54 1008.5
20200606130106 23 244 6.4 14.5 0.00 0.05 0.03 54 1008.4
20200606125106 23 208 9.7 16.1 0.00 0.05 0.03 54 1008.6
20200606124606 23 236 9.7 14.5 0.00 0.05 0.03 53 1008.6
20200606123606 22 198 16.1 22.5 0.00 0.05 0.03 53 1008.6
20200606123105 22 209 12.9 22.5 0.00 0.05 0.03 52 1008.7
20200606122606 22 207 11.3 16.1 0.00 0.05 0.03 55 1008.8
20200606121606 22 243 16.1 27.4 0.00 0.05 0.03 54 1008.8
20200606121105 22 228 11.3 20.9 0.00 0.05 0.03 55 1008.8
20200606120606 22 235 11.3 20.9 0.00 0.05 0.03 54 1008.8
20200606120107 23 218 9.7 12.9 0.00 0.05 0.03 53 1008.7
20200606115605 23 86 9.7 19.3 0.00 0.05 0.03 54 1008.7
20200606115107 23 226 14.5 24.1 0.00 0.05 0.03 54 1008.7
20200606114607 22 221 16.1 24.1 0.00 0.05 0.03 54 1008.6
20200606114106 22 292 9.7 24.1 0.00 0.05 0.03 52 1008.7
20200606113605 22 256 8.0 16.1 0.00 0.05 0.03 54 1008.6
20200606112106 22 175 8.0 24.1 0.00 0.05 0.03 55 1008.8
20200606111105 21 183 12.9 24.1 0.00 0.05 0.03 55 1008.8
20200606105605 21 219 14.5 24.1 0.00 0.05 0.03 54 1008.9
20200606105112 21 255 14.5 24.1 0.00 0.05 0.03 55 1008.9
20200606104606 21 230 16.1 24.1 0.00 0.05 0.03 54 1008.9
20200606103606 21 198 14.5 29.0 0.00 0.05 0.03 54 1008.8
20200606103106 21 183 11.3 24.1 0.00 0.05 0.03 55 1008.7
20200606102105 21 219 16.1 22.5 0.00 0.05 0.03 55 1008.8
20200606101615 21 164 16.1 22.5 0.00 0.05 0.03 54 1008.7
20200606101106 21 195 12.9 25.7 0.00 0.08 0.03 57 1008.6
20200606100605 21 163 14.5 25.7 0.00 0.10 0.03 55 1008.6
20200606100106 21 102 12.9 20.9 0.00 0.13 0.03 56 1008.6
20200606095605 21 218 16.1 24.1 0.00 0.15 0.03 56 1008.7
20200606095106 20 211 16.1 24.1 0.00 0.15 0.03 54 1008.6
20200606094606 21 228 11.3 24.1 0.00 0.18 0.03 56 1008.7
20200606094106 20 158 11.3 19.3 0.00 0.18 0.03 58 1008.6
20200606093607 20 193 14.5 20.9 0.00 0.20 0.03 58 1008.6
20200606092607 20 121 16.1 25.7 0.00 0.25 0.03 58 1008.7
20200606092105 20 206 14.5 25.7 0.00 0.28 0.03 58 1008.6
20200606091107 20 200 11.3 22.5 0.00 0.30 0.03 58 1008.5
20200606090605 20 160 12.9 22.5 0.00 0.33 0.03 61 1008.5
20200606085605 19 212 9.7 20.9 0.00 0.33 0.03 61 1008.4
20200606085105 19 285 11.3 19.3 0.00 0.33 0.03 62 1008.4
20200606084606 19 173 11.3 22.5 0.00 0.33 0.03 62 1008.5
20200606084106 19 153 12.9 22.5 0.00 0.33 0.03 62 1008.3
20200606083106 19 217 11.3 20.9 0.00 0.33 0.03 63 1008.5
20200606082107 18 171 16.1 27.4 0.00 0.33 0.03 62 1008.5
20200606081605 18 208 17.7 22.5 0.00 0.33 0.03 62 1008.4
20200606080605 19 224 9.7 20.9 0.00 0.33 0.03 61 1008.5
20200606080107 19 239 11.3 22.5 0.00 0.33 0.03 62 1008.4
20200606075605 18 157 16.1 27.4 0.00 0.33 0.03 63 1008.3
20200606075106 18 209 14.5 27.4 0.00 0.33 0.03 63 1008.4
20200606074607 18 216 14.5 27.4 0.00 0.33 0.03 62 1008.4
20200606074105 18 161 16.1 24.1 0.00 0.33 0.03 64 1008.2
20200606072105 17 215 14.5 29.0 0.00 0.33 0.03 65 1008.2
20200606071606 17 203 14.5 19.3 0.00 0.33 0.03 65 1008.3
20200606071105 17 175 12.9 16.1 0.00 0.33 0.03 67 1008.1
20200606070108 17 211 14.5 27.4 0.00 0.33 0.03 68 1008.2
20200606065606 17 224 14.5 27.4 0.00 0.33 0.03 69 1008.1
20200606064606 16 209 14.5 22.5 0.00 0.33 0.03 70 1008.1
20200606063605 16 121 14.5 25.7 0.00 0.33 0.03 71 1008.2
20200606062106 16 191 11.3 19.3 0.00 0.33 0.03 73 1008.1
20200606061105 16 166 11.3 16.1 0.00 0.33 0.03 73 1008.1
20200606055606 15 149 12.9 24.1 0.00 0.33 0.03 73 1007.8
20200606054606 15 200 14.5 29.0 0.00 0.33 0.03 73 1007.7
20200606054106 15 217 14.5 29.0 0.00 0.33 0.03 74 1007.6
20200606053608 15 218 12.9 24.1 0.00 0.33 0.03 75 1007.5
20200606053106 15 170 12.9 22.5 0.00 0.33 0.03 76 1007.4
20200606052606 15 201 12.9 19.3 0.00 0.33 0.03 78 1007.5
20200606052106 15 228 11.3 19.3 0.00 0.33 0.03 78 1007.6
20200606051606 14 198 9.7 19.3 0.00 0.33 0.03 80 1007.6
20200606051105 14 222 8.0 19.3 0.00 0.33 0.03 80 1007.6
20200606050606 14 194 9.7 14.5 0.00 0.33 0.03 81 1007.7
20200606050107 14 209 11.3 14.5 0.00 0.33 0.03 81 1007.6
20200606045606 13 170 8.0 12.9 0.00 0.33 0.03 81 1007.5
20200606044605 13 163 6.4 14.5 0.00 0.33 0.03 82 1007.1
20200606044105 13 127 8.0 19.3 0.00 0.33 0.03 82 1006.7
20200606043105 13 210 9.7 19.3 0.00 0.33 0.03 83 1006.9
20200606042607 13 206 9.7 14.5 0.00 0.33 0.03 83 1007.0
20200606042105 13 191 11.3 24.1 0.00 0.33 0.03 84 1007.0
20200606041105 13 200 12.9 19.3 0.00 0.33 0.03 85 1007.1
20200606040606 12 193 12.9 19.3 0.00 0.33 0.03 85 1006.9
20200606040106 12 188 11.3 20.9 0.00 0.33 0.03 86 1006.8
20200606035605 12 234 11.3 20.9 0.00 0.33 0.03 86 1006.8
20200606035105 12 172 12.9 19.3 0.00 0.33 0.03 87 1006.8
20200606034605 12 208 12.9 19.3 0.00 0.33 0.03 87 1006.7
20200606034106 12 216 11.3 19.3 0.00 0.33 0.03 88 1006.6
20200606033605 12 206 9.7 14.5 0.00 0.33 0.03 89 1006.5
20200606033106 11 174 8.0 12.9 0.00 0.33 0.03 90 1006.4
20200606032605 11 192 8.0 12.9 0.00 0.33 0.03 91 1006.4
20200606032105 11 201 8.0 12.9 0.00 0.33 0.03 91 1006.4
20200606031605 11 204 8.0 14.5 0.00 0.33 0.03 92 1006.3
20200606031106 11 210 8.0 14.5 0.00 0.33 0.03 92 1006.2
20200606030105 11 177 4.8 9.7 0.00 0.33 0.03 92 1006.1
20200606025605 11 179 4.8 9.7 0.00 0.33 0.03 92 1006.1
20200606025106 11 198 3.2 8.0 0.00 0.33 0.03 92 1006.0
20200606024605 11 172 4.8 12.9 0.00 0.33 0.03 92 1006.1
20200606023605 11 182 3.2 4.8 0.00 0.33 0.03 92 1006.0
20200606022607 11 189 4.8 8.0 0.00 0.33 0.03 92 1005.9
20200606022105 11 188 4.8 8.0 0.00 0.33 0.03 93 1005.9
20200606021606 11 214 4.8 8.0 0.00 0.33 0.03 92 1006.0
20200606021105 11 178 6.4 12.9 0.00 0.33 0.03 92 1005.9
20200606020605 11 169 8.0 12.9 0.00 0.33 0.03 92 1005.8
20200606020107 11 196 8.0 11.3 0.00 0.33 0.03 92 1005.7
20200606015605 11 192 8.0 9.7 0.00 0.33 0.03 92 1005.7
20200606015105 11 176 4.8 9.7 0.00 0.33 0.03 92 1005.7
20200606014605 11 181 4.8 8.0 0.00 0.33 0.03 92 1005.7
20200606014105 11 184 4.8 8.0 0.00 0.33 0.03 92 1005.7
20200606012605 11 155 4.8 9.7 0.00 0.33 0.03 91 1005.6
20200606011105 11 185 4.8 11.3 0.03 0.33 0.03 91 1005.6
20200606010106 11 214 8.0 16.1 0.03 0.33 0.03 91 1005.5
20200606005605 11 225 8.0 16.1 0.03 0.33 0.03 91 1005.5
20200606003606 11 191 9.7 19.3 0.03 0.33 0.03 91 1005.2
20200606003105 11 211 9.7 19.3 0.03 0.33 0.03 92 1005.0
20200606001606 11 197 9.7 16.1 0.00 0.33 0.00 92 1005.0
20200606001105 11 196 9.7 19.3 0.00 0.33 0.00 92 1005.0
20200606000105 11 186 11.3 16.1 0.00 0.33 0.00 92 1005.0
20200605235605 11 213 9.7 16.1 0.00 0.33 0.00 92 1005.0
20200605235105 11 174 8.0 12.9 0.00 0.33 0.00 92 1005.0
20200605234604 11 215 4.8 11.3 0.00 0.33 0.00 92 1004.8
20200605234106 11 225 4.8 9.7 0.00 0.33 0.00 92 1004.7
20200605233605 11 203 4.8 11.3 0.00 0.33 0.00 92 1004.6
20200605233105 11 193 8.0 12.9 0.00 0.33 0.00 92 1004.5
20200605232605 11 197 8.0 12.9 0.00 0.33 0.00 92 1004.5
20200605231606 11 162 8.0 19.3 0.00 0.33 0.00 93 1004.5
20200605231107 11 196 8.0 14.5 0.00 0.33 0.00 93 1004.5
20200605230105 11 202 9.7 19.3 0.00 0.33 0.00 93 1004.3
20200605225106 11 187 9.7 16.1 0.00 0.33 0.00 93 1004.2
20200605224604 11 197 6.4 19.3 0.00 0.33 0.00 93 1004.1
20200605224105 11 171 4.8 19.3 0.00 0.33 0.00 93 1004.1
20200605223605 11 205 8.0 19.3 0.00 0.33 0.00 94 1004.2
20200605223105 11 212 8.0 14.5 0.00 0.33 0.00 94 1004.1
20200605222606 11 224 8.0 14.5 0.00 0.33 0.00 94 1004.1
20200605222105 11 235 8.0 14.5 0.00 0.33 0.00 94 1004.0
20200605221605 11 194 4.8 12.9 0.00 0.33 0.00 94 1003.8
20200605221109 11 140 8.0 12.9 0.00 0.33 0.00 94 1003.6
20200605220105 11 185 8.0 12.9 0.00 0.33 0.00 94 1003.7
20200605215106 11 221 4.8 11.3 0.00 0.33 0.33 94 1003.6
20200605214605 11 178 4.8 11.3 0.00 0.33 0.33 94 1003.6
20200605213605 11 173 3.2 8.0 0.00 0.33 0.33 94 1003.5
20200605213105 11 172 4.8 8.0 0.00 0.33 0.33 94 1003.4
20200605212605 11 157 4.8 9.7 0.00 0.33 0.33 94 1003.4
20200605211606 12 172 4.8 9.7 0.00 0.33 0.33 94 1003.4
20200605210606 12 147 4.8 8.0 0.00 0.33 0.33 94 1003.2
20200605210106 12 188 4.8 8.0 0.00 0.33 0.33 93 1003.3
20200605205105 12 190 4.8 8.0 0.00 0.33 0.33 94 1003.2
20200605204105 12 177 8.0 9.7 0.00 0.33 0.33 94 1003.2
20200605203605 12 166 4.8 9.7 0.00 0.33 0.33 94 1003.2
20200605203105 12 159 4.8 8.0 0.00 0.33 0.33 93 1003.2
20200605202105 12 191 4.8 8.0 0.00 0.33 0.33 93 1003.0
20200605201605 12 184 4.8 9.7 0.00 0.33 0.33 93 1003.0
20200605201105 12 192 4.8 9.7 0.00 0.33 0.33 93 1003.0
20200605200605 12 224 3.2 8.0 0.00 0.33 0.33 93 1002.9
20200605200105 12 189 3.2 8.0 0.00 0.33 0.33 93 1003.0
20200605195605 12 162 4.8 8.0 0.00 0.33 0.33 93 1002.9
20200605195105 12 158 3.2 8.0 0.00 0.33 0.33 93 1003.0
20200605194605 12 195 3.2 3.2 0.00 0.33 0.33 93 1002.8
20200605194105 12 175 3.2 8.0 0.00 0.33 0.33 93 1002.8
20200605192105 12 146 3.2 8.0 0.00 0.33 0.33 92 1002.6
20200605190606 12 187 3.2 8.0 0.00 0.33 0.33 93 1002.4
20200605185605 12 156 3.2 8.0 0.00 0.33 0.33 92 1002.2
20200605185105 12 173 4.8 8.0 0.00 0.33 0.33 92 1002.3
20200605184605 12 142 4.8 8.0 0.00 0.33 0.33 92 1002.1
20200605183605 13 156 3.2 8.0 0.00 0.33 0.33 92 1002.1
20200605183105 13 173 3.2 4.8 0.00 0.33 0.33 92 1002.0
20200605182606 13 198 1.6 4.8 0.00 0.33 0.33 91 1002.0
20200605182105 13 181 0.0 1.6 0.00 0.33 0.33 91 1002.0
20200605181605 13 181 0.0 1.6 0.00 0.33 0.33 91 1002.0
20200605181105 13 163 0.0 0.0 0.00 0.33 0.33 91 1002.0
20200605180605 13 181 0.0 0.0 0.03 0.33 0.33 91 1001.9
20200605180105 13 192 0.0 1.6 0.03 0.33 0.33 91 1001.9
20200605174605 13 274 0.0 0.0 0.03 0.33 0.33 90 1001.6
20200605174105 13 274 0.0 1.6 0.03 0.33 0.33 90 1001.6
20200605173605 13 274 0.0 3.2 0.03 0.33 0.33 90 1001.6
20200605173105 13 274 0.0 3.2 0.03 0.33 0.33 90 1001.7
20200605172105 13 254 0.0 3.2 0.03 0.33 0.33 90 1001.6
20200605170605 13 239 1.6 3.2 0.00 0.30 0.30 89 1001.7